Location: Trebic
(49.2170°N, 15.8830°E)
Time: 01:01:40
(UTC+01:00)

Transit 4A - Pass Details

Date: 05 November 2020
Orbit: 862 x 982 km, 66.8° (Epoch: 28 November)

Event Time Altitude Azimuth Distance (km) Brightness Sun altitude
Rises 17:36:35 0° 301° (WNW) 3,679 11.8 -11.5°
Reaches altitude 10° 17:40:21 10° 323° (NW) 2,741 10.7 -12.1°
Maximum altitude 17:44:09 16° 359° (N) 2,332 9.9 -12.7°
Drops below altitude 10° 17:47:58 10° 36° (NE) 2,742 9.9 -13.3°
Enters shadow 17:48:32 - 40° (NE) 2,861 10.0 -13.4°
